TimeMST,TemperatureF,Dew PointF,Humidity,Sea Level PressureIn,VisibilityMPH,Wind Direction,Wind SpeedMPH,Gust SpeedMPH,PrecipitationIn,Events,Conditions,WindDirDegrees,DateUTC
12:53 AM,10.0,7.0,87,30.32,10.0,Variable,3.5,-,N/A,,Clear,0,2013-01-09 07:53:00
1:53 AM,9.0,5.0,84,30.32,10.0,Calm,Calm,-,N/A,,Clear,0,2013-01-09 08:53:00
2:53 AM,9.0,5.0,84,30.32,10.0,Calm,Calm,-,N/A,,Clear,0,2013-01-09 09:53:00
3:53 AM,7.0,3.0,84,30.32,10.0,Calm,Calm,-,N/A,,Clear,0,2013-01-09 10:53:00
4:53 AM,3.9,1.0,88,30.37,10.0,Calm,Calm,-,N/A,,Clear,0,2013-01-09 11:53:00
5:53 AM,6.1,1.9,83,30.42,10.0,Calm,Calm,-,N/A,,Clear,0,2013-01-09 12:53:00
6:53 AM,3.9,-0.9,80,30.47,8.0,North,3.5,-,N/A,,Clear,360,2013-01-09 13:53:00
7:53 AM,3.0,-0.0,87,30.54,10.0,Calm,Calm,-,N/A,,Clear,0,2013-01-09 14:53:00
8:53 AM,10.9,6.1,81,30.51,10.0,Calm,Calm,-,N/A,,Clear,0,2013-01-09 15:53:00
9:53 AM,21.0,12.9,71,30.50,10.0,Calm,Calm,-,N/A,,Clear,0,2013-01-09 16:53:00
10:53 AM,30.9,16.0,54,30.44,10.0,Calm,Calm,-,N/A,,Clear,0,2013-01-09 17:53:00
11:53 AM,37.0,18.0,46,30.39,10.0,Calm,Calm,-,N/A,,Clear,0,2013-01-09 18:53:00
12:53 PM,42.1,14.0,32,30.34,10.0,Calm,Calm,-,N/A,,Clear,0,2013-01-09 19:53:00
1:53 PM,45.0,14.0,29,30.29,10.0,Calm,Calm,-,N/A,,Clear,0,2013-01-09 20:53:00
2:53 PM,44.1,17.1,34,30.28,10.0,West,6.9,-,N/A,,Clear,260,2013-01-09 21:53:00
3:53 PM,46.9,12.9,25,30.26,10.0,Calm,Calm,-,N/A,,Clear,0,2013-01-09 22:53:00
4:53 PM,43.0,18.0,37,30.27,10.0,ESE,6.9,-,N/A,,Clear,110,2013-01-09 23:53:00
5:53 PM,35.1,17.1,48,30.28,10.0,ESE,10.4,-,N/A,,Clear,110,2013-01-10 00:53:00
6:53 PM,26.1,16.0,66,30.33,10.0,South,3.5,-,N/A,,Clear,170,2013-01-10 01:53:00
7:53 PM,19.9,14.0,78,30.35,10.0,Calm,Calm,-,N/A,,Clear,0,2013-01-10 02:53:00
8:53 PM,21.9,15.1,75,30.30,10.0,East,3.5,-,N/A,,Clear,90,2013-01-10 03:53:00
9:53 PM,14.0,10.9,88,30.28,10.0,Calm,Calm,-,N/A,,Clear,0,2013-01-10 04:53:00
10:53 PM,12.0,9.0,88,30.23,10.0,Calm,Calm,-,N/A,,Clear,0,2013-01-10 05:53:00
11:53 PM,12.0,9.0,88,30.17,10.0,Calm,Calm,-,N/A,,Clear,0,2013-01-10 06:53:00